[[{"header":{"parameterUnit":"m.s-1","parameterCategory":1,"la1":30.2991,"la2":30.254,"lo1":-89.0895,"lo2":-89.0444,"dy":0.0017,"dx":0.0017,"nx":28,"ny":28,"refTime":"2023-09-10T03:00:00:Z","depth":0,"parameterNumber":2,"parameterNumberName":"U-component_of_WINDS"},"data":[0,0,0,0,0,0,0,0,0,0,0,0,0,0,0,0,0,0,0,0,0,0,0,0,0,0,0,0,0,0,0,0,0,0,0,0,0,0,0,0,0,0,0,0,0,0,0,0,0,0,0,0,0,0,0,0,0,0,-0.506,-0.5061,0,-0.5132,-0.5133,-0.5133,-0.5097,-0.5095,-0.5093,-0.5091,-0.5167,-0.5171,-0.5175,0,0,0,0,0,0,0,0,0,0,0,0,0,-0.4895,-0.4898,-0.506,-0.5061,-0.5062,-0.5132,-0.5133,-0.5134,-0.5097,-0.5095,-0.5093,-0.5091,-0.5166,-0.5171,-0.5175,0,0,0,0,0,0,0,0,0,0,0,0,0,-0.4966,-0.4899,-0.506,-0.5052,-0.5052,-0.5131,-0.5133,-0.5134,-0.5098,-0.5095,-0.5092,-0.509,-0.5165,-0.517,-0.5176,-0.5268,0,0,-0.5193,-0.5196,0,0,0,0,0,0,0,0,-0.4962,-0.4973,-0.5053,-0.5053,-0.5053,-0.5102,-0.5102,-0.5179,-0.5099,-0.5081,-0.5091,-0.5088,-0.5148,-0.5155,-0.5175,-0.5271,-0.5275,-0.5194,-0.5197,-0.52,-0.5201,0,0,0,0,0,0,0,-0.4957,-0.4969,-0.5089,-0.5054,-0.5054,-0.5046,-0.5053,-0.5116,-0.513,-0.5082,-0.508,-0.5088,-0.5148,-0.517,-0.5176,-0.5276,-0.5194,-0.5199,-0.5202,-0.5204,-0.5452,-0.5455,0,0,0,0,0,0,-0.4953,-0.4965,-0.5086,-0.5091,-0.5,-0.5051,-0.5059,-0.509,-0.5129,-0.5132,-0.5091,-0.5086,-0.5161,-0.517,-0.5179,-0.529,-0.52,-0.5205,-0.5208,-0.5449,-0.5452,-0.5456,0,0,0,0,0,0,-0.4949,-0.4964,-0.5084,-0.5027,-0.5042,-0.5057,-0.5092,-0.5093,-0.5114,-0.5135,-0.5138,-0.511,-0.5159,-0.5171,-0.5246,-0.5293,-0.5207,-0.5213,-0.5445,-0.545,-0.5454,-0.5513,0,0,0,0,0,0,-0.4945,-0.4963,-0.4997,-0.5028,-0.5045,-0.5149,-0.5094,-0.5096,-0.5124,-0.5119,-0.5154,-0.5158,-0.5158,-0.5238,-0.5252,-0.5299,-0.5217,-0.5441,-0.5447,-0.5453,-0.5507,-0.552,-0.553,0,0,0,0,0,-0.4939,-0.5012,-0.4999,-0.5014,-0.5089,-0.5152,-0.5161,-0.516,-0.5127,-0.5163,-0.5176,-0.5156,-0.5284,-0.5246,-0.5261,-0.5311,-0.5438,-0.5445,-0.5452,-0.5502,-0.5517,-0.553,0,0,0,0,0,0,-0.4987,-0.5016,-0.5002,-0.5087,-0.5117,-0.5145,-0.519,-0.5175,-0.5216,-0.521,-0.5206,-0.5215,-0.5293,-0.5309,-0.5265,-0.5402,-0.5356,-0.5367,-0.5389,-0.5404,-0.5415,-0.5411,-0.5222,0,0,0,0,0,-0.5007,-0.5055,-0.5078,-0.5151,-0.5166,-0.5176,-0.5203,-0.5199,-0.523,-0.5243,-0.5262,-0.5294,-0.5341,-0.5373,-0.5417,-0.5508,-0.5516,-0.555,-0.5561,-0.557,-0.5581,-0.5631,-0.5647,-0.5479,-0.5479,-0.5479,0,0,-0.5051,-0.5072,-0.5103,-0.5161,-0.5184,-0.5235,-0.5187,-0.5242,-0.528,-0.5252,-0.5324,-0.5339,-0.5374,-0.5458,-0.5495,-0.5473,-0.5628,-0.5579,-0.5586,-0.5592,-0.564,-0.5656,-0.567,-0.5484,-0.5483,-0.5482,0,0,-0.5156,-0.5176,-0.524,-0.5263,-0.5297,-0.5303,-0.5318,-0.5348,-0.5357,-0.5428,-0.5408,-0.5453,-0.5534,-0.5561,-0.5585,-0.5698,-0.5682,-0.5712,-0.5773,-0.5822,-0.5835,-0.5847,-0.5889,-0.5904,-0.5721,-0.5722,-0.5722,0,-0.5206,-0.5281,-0.5274,-0.5332,-0.5358,-0.5333,-0.5398,-0.5421,-0.5469,-0.5488,-0.5462,-0.5563,-0.5585,-0.5675,-0.5703,-0.5722,-0.574,-0.571,-0.5833,-0.5845,-0.5856,-0.5896,-0.5912,-0.5725,-0.5725,-0.5725,-0.5724,0,-0.5341,-0.5393,-0.544,-0.5486,-0.5518,-0.5579,-0.5582,-0.5615,-0.5607,-0.5616,-0.569,-0.5714,-0.5764,-0.5784,-0.5778,-0.5874,-0.5859,-0.5833,-0.5788,-0.5876,-0.5914,-0.5929,-0.5731,-0.5729,-0.5728,-0.5727,0,0,-0.5482,-0.5522,-0.554,-0.5561,-0.5596,-0.5636,-0.5696,-0.5743,-0.5772,-0.5805,-0.5856,-0.5924,-0.5901,-0.5928,-0.5923,-0.5966,-0.6056,-0.5935,-0.5936,-0.5959,-0.6165,-0.6187,-0.6205,-0.6044,-0.6047,-0.6049,-0.6163,0,-0.5591,-0.5695,-0.5691,-0.5788,-0.5837,-0.5812,-0.5864,-0.5892,-0.5901,-0.5944,-0.5953,-0.6003,-0.5966,-0.5983,-0.6024,-0.6037,-0.6098,-0.6028,-0.6094,-0.6096,-0.6089,-0.6224,-0.6247,-0.6354,-0.6178,-0.618,-0.6182,0,-0.5734,-0.5771,-0.5873,-0.5901,-0.5921,-0.5968,-0.6012,-0.6052,-0.6083,-0.6086,-0.6116,-0.6104,-0.6165,-0.6116,-0.62,-0.6153,-0.6178,-0.6189,-0.6193,-0.6201,-0.6147,-0.6239,-0.6388,-0.6405,-0.6205,-0.6203,-0.6202,0,-0.583,-0.5905,-0.5976,-0.5994,-0.6027,-0.6061,-0.6077,-0.6104,-0.6133,-0.617,-0.6189,-0.6233,-0.6259,-0.6293,-0.6294,-0.6257,-0.638,-0.633,-0.6386,-0.6387,-0.6416,-0.6415,-0.6574,-0.6428,-0.6428,-0.6427,-0.6427,0,-0.5954,-0.6018,-0.6019,-0.6064,-0.6135,-0.6128,-0.6199,-0.6211,-0.6236,-0.6282,-0.6262,-0.6307,-0.6304,-0.6349,-0.6349,-0.6421,-0.6431,-0.6437,-0.6437,-0.6441,-0.644,-0.646,-0.6454,-0.6432,-0.6431,-0.643,-0.6429,0,-0.6075,-0.6077,-0.6154,-0.6178,-0.6186,-0.6238,-0.6259,-0.6302,-0.6307,-0.6367,-0.638,-0.639,-0.6442,-0.6445,-0.6505,-0.6505,-0.6592,-0.6583,-0.6582,-0.6582,-0.6638,-0.6634,-0.6818,-0.6843,-0.6678,-0.668,-0.6681,0,-0.6156,-0.6204,-0.6234,-0.6263,-0.6281,-0.6328,-0.6357,-0.6352,-0.6383,-0.6421,-0.6459,-0.6508,-0.6548,-0.6632,-0.6645,-0.6691,-0.6684,-0.6745,-0.6691,-0.6693,-0.6688,-0.6686,-0.6692,-0.6757,-0.6759,-0.676,-0.6761,0,-0.63,-0.6299,-0.6341,-0.6383,-0.6418,-0.6452,-0.6483,-0.6508,-0.6506,-0.6542,-0.6594,-0.6625,-0.6685,-0.6735,-0.678,-0.6796,-0.678,-0.6777,-0.6793,-0.6799,-0.6798,-0.6802,-0.6614,-0.6774,-0.6773,-0.6772,-0.6771,-0.6771,-0.6405,-0.6448,-0.6475,-0.6523,-0.6545,-0.6574,-0.6615,-0.6625,-0.6669,-0.6717,-0.6711,-0.677,-0.6798,-0.6856,-0.6876,-0.6922,-0.6901,-0.6923,-0.693,-0.6936,-0.6943,-0.6788,-0.6929,-0.6929,-0.6928,-0.6928,-0.6928,0,-0.6551,-0.6566,-0.661,-0.6654,-0.6691,-0.6669,-0.6702,-0.6736,-0.6787,-0.6815,-0.6853,-0.6914,-0.6961,-0.6977,-0.7024,-0.7058,-0.7051,-0.7071,-0.707,-0.7074,-0.6958,-0.6941,-0.7075,-0.7075,-0.7075,-0.7075,-0.7075,-0.7075,-0.6631,-0.6702,-0.6704,-0.6786,-0.6801,-0.6858,-0.6879,-0.6906,-0.6928,-0.6996,-0.7035,-0.7044,-0.7068,-0.7115,-0.7159,-0.7162,-0.7181,-0.7204,-0.7205,-0.7097,-0.7082,-0.7068,-0.7052,-0.7208,-0.7208,-0.7318,-0.7319,-0.732]},{"header":{"parameterUnit":"m.s-1","parameterCategory":1,"la1":30.2991,"la2":30.254,"lo1":-89.0895,"lo2":-89.0444,"dy":0.0017,"dx":0.0017,"nx":28,"ny":28,"refTime":"2023-09-10T03:00:00:Z","depth":0,"parameterNumber":3,"parameterNumberName":"V-component_of_WINDS"},"data":[0,0,0,0,0,0,0,0,0,0,0,0,0,0,0,0,0,0,0,0,0,0,0,0,0,0,0,0,0,0,0,0,0,0,0,0,0,0,0,0,0,0,0,0,0,0,0,0,0,0,0,0,0,0,0,0,0,0,-4.514,-4.5141,0,-4.5265,-4.5266,-4.5268,-4.5223,-4.522,-4.5217,-4.5215,-4.5337,-4.5343,-4.5349,0,0,0,0,0,0,0,0,0,0,0,0,0,-4.4856,-4.4861,-4.5139,-4.5141,-4.5143,-4.5265,-4.5266,-4.5268,-4.5223,-4.522,-4.5217,-4.5213,-4.5335,-4.5342,-4.5349,0,0,0,0,0,0,0,0,0,0,0,0,0,-4.498,-4.4863,-4.5139,-4.5135,-4.5136,-4.5264,-4.5266,-4.5269,-4.5224,-4.522,-4.5216,-4.5212,-4.5333,-4.5342,-4.535,-4.5488,0,0,-4.5377,-4.5381,0,0,0,0,0,0,0,0,-4.4973,-4.499,-4.5134,-4.5136,-4.5137,-4.5224,-4.5211,-4.5342,-4.5225,-4.5191,-4.5215,-4.521,-4.5303,-4.5314,-4.5346,-4.5494,-4.5499,-4.5378,-4.5383,-4.5387,-4.5389,0,0,0,0,0,0,0,-4.4964,-4.4984,-4.5189,-4.5136,-4.5138,-4.5125,-4.5138,-4.5236,-4.5268,-4.5193,-4.519,-4.5206,-4.5302,-4.5338,-4.5349,-4.5501,-4.5378,-4.5385,-4.5391,-4.5394,-4.5767,-4.5772,0,0,0,0,0,0,-4.4956,-4.4978,-4.5185,-4.5193,-4.5043,-4.5134,-4.5148,-4.52,-4.5267,-4.5273,-4.5209,-4.5204,-4.5325,-4.5338,-4.5353,-4.5519,-4.5387,-4.5395,-4.54,-4.5763,-4.5768,-4.5773,0,0,0,0,0,0,-4.495,-4.4975,-4.518,-4.5085,-4.511,-4.5143,-4.5202,-4.5205,-4.524,-4.528,-4.5284,-4.524,-4.5322,-4.534,-4.5455,-4.5522,-4.5399,-4.5407,-4.5757,-4.5764,-4.5771,-4.5852,0,0,0,0,0,0,-4.4942,-4.4973,-4.5027,-4.5086,-4.5115,-4.5282,-4.5206,-4.521,-4.5256,-4.525,-4.5309,-4.5315,-4.532,-4.5442,-4.5464,-4.5532,-4.5414,-4.5751,-4.576,-4.5769,-4.5843,-4.586,-4.5875,0,0,0,0,0,-4.4932,-4.5043,-4.503,-4.5055,-4.5184,-4.5286,-4.5302,-4.5308,-4.5262,-4.5316,-4.5341,-4.5313,-4.5511,-4.5454,-4.5478,-4.555,-4.5747,-4.5758,-4.5768,-4.5836,-4.5857,-4.5875,0,0,0,0,0,0,-4.4989,-4.5051,-4.5037,-4.5171,-4.5224,-4.5278,-4.5347,-4.533,-4.5395,-4.5386,-4.5387,-4.5401,-4.5519,-4.5546,-4.5481,-4.5687,-4.5622,-4.5638,-4.5665,-4.5686,-4.5702,-4.5693,-4.5421,0,0,0,0,0,-4.5018,-4.5098,-4.5147,-4.5261,-4.5288,-4.5313,-4.5358,-4.5357,-4.5411,-4.5433,-4.5466,-4.5518,-4.5591,-4.564,-4.571,-4.5846,-4.5858,-4.5907,-4.5924,-4.5937,-4.595,-4.6024,-4.6046,-4.5808,-4.5807,-4.5807,0,0,-4.5077,-4.5121,-4.5171,-4.5273,-4.5314,-4.5395,-4.5332,-4.542,-4.548,-4.5445,-4.5557,-4.5583,-4.564,-4.5767,-4.5824,-4.5792,-4.6019,-4.595,-4.596,-4.5967,-4.6037,-4.6059,-4.6079,-4.5815,-4.5813,-4.5812,0,0,-4.5227,-4.5269,-4.5368,-4.5411,-4.5474,-4.549,-4.5514,-4.5571,-4.5588,-4.57,-4.5676,-4.5745,-4.5872,-4.5915,-4.5953,-4.6119,-4.6096,-4.6141,-4.6225,-4.6297,-4.6316,-4.6332,-4.6391,-4.6413,-4.6154,-4.6155,-4.6155,0,-4.5292,-4.5416,-4.5421,-4.5512,-4.5557,-4.5531,-4.5631,-4.5671,-4.5754,-4.5785,-4.5749,-4.5908,-4.5945,-4.6081,-4.6121,-4.6153,-4.6179,-4.6134,-4.6313,-4.633,-4.6345,-4.6402,-4.6424,-4.616,-4.6159,-4.6159,-4.6158,0,-4.5493,-4.5579,-4.5651,-4.5733,-4.5787,-4.5881,-4.5899,-4.5952,-4.5947,-4.5966,-4.6079,-4.6123,-4.6201,-4.6233,-4.6228,-4.6368,-4.6347,-4.6312,-4.6247,-4.6373,-4.6426,-4.6448,-4.6167,-4.6165,-4.6164,-4.6162,0,0,-4.5682,-4.5767,-4.5794,-4.5831,-4.5899,-4.5964,-4.6057,-4.6136,-4.6181,-4.6238,-4.6315,-4.6424,-4.6392,-4.6435,-4.6434,-4.6498,-4.6626,-4.6455,-4.6456,-4.6485,-4.6782,-4.6808,-4.6833,-4.6611,-4.6615,-4.6618,-4.6777,0,-4.5838,-4.6004,-4.6011,-4.6161,-4.624,-4.6216,-4.6297,-4.6347,-4.6367,-4.6435,-4.6456,-4.6533,-4.6486,-4.6512,-4.6573,-4.6597,-4.6685,-4.6586,-4.6681,-4.6685,-4.6668,-4.6861,-4.6888,-4.7036,-4.6798,-4.6802,-4.6804,0,-4.6042,-4.6108,-4.6267,-4.6323,-4.6357,-4.643,-4.6502,-4.6568,-4.6623,-4.6633,-4.6682,-4.6672,-4.6765,-4.6697,-4.6825,-4.6757,-4.6796,-4.6814,-4.6819,-4.6828,-4.6752,-4.6875,-4.7084,-4.7106,-4.6837,-4.6834,-4.6832,0,-4.6164,-4.6292,-4.6404,-4.6436,-4.6506,-4.6557,-4.6588,-4.6639,-4.6686,-4.6748,-4.6778,-4.685,-4.689,-4.6945,-4.6954,-4.6903,-4.7082,-4.7014,-4.7091,-4.7091,-4.713,-4.7127,-4.7348,-4.7155,-4.7155,-4.7155,-4.7154,0,-4.6337,-4.6435,-4.646,-4.6529,-4.6638,-4.6644,-4.6751,-4.6777,-4.6823,-4.6895,-4.6878,-4.6945,-4.6953,-4.7022,-4.7029,-4.7134,-4.7151,-4.7161,-4.7162,-4.7163,-4.7162,-4.7189,-4.7178,-4.7161,-4.7159,-4.7158,-4.7157,0,-4.6493,-4.6513,-4.6634,-4.669,-4.6706,-4.6784,-4.683,-4.6895,-4.6914,-4.7005,-4.7027,-4.7055,-4.7135,-4.715,-4.7244,-4.7249,-4.7374,-4.7364,-4.7356,-4.7355,-4.7431,-4.7424,-4.7677,-4.771,-4.7496,-4.7498,-4.7499,0,-4.6602,-4.6677,-4.6742,-4.679,-4.6824,-4.6901,-4.6949,-4.6958,-4.7008,-4.7077,-4.7133,-4.7212,-4.7276,-4.7405,-4.7433,-4.7505,-4.7496,-4.758,-4.7507,-4.7505,-4.7497,-4.7493,-4.75,-4.7594,-4.7596,-4.7598,-4.76,0,-4.6793,-4.68,-4.6871,-4.6947,-4.7005,-4.7064,-4.712,-4.716,-4.7175,-4.7232,-4.7316,-4.7366,-4.7463,-4.7541,-4.7613,-4.7642,-4.7623,-4.7623,-4.7644,-4.7646,-4.7639,-4.7644,-4.7394,-4.7617,-4.7615,-4.7614,-4.7613,-4.7612,-4.6929,-4.6995,-4.7051,-4.7131,-4.7174,-4.7227,-4.7291,-4.7318,-4.7388,-4.7469,-4.7469,-4.756,-4.7612,-4.7707,-4.774,-4.781,-4.7783,-4.7815,-4.7823,-4.783,-4.7838,-4.7628,-4.7823,-4.7823,-4.7822,-4.7822,-4.7822,0,-4.712,-4.7155,-4.7228,-4.7308,-4.737,-4.735,-4.741,-4.7463,-4.7544,-4.7595,-4.7659,-4.7754,-4.783,-4.7864,-4.7938,-4.7987,-4.7981,-4.8007,-4.8003,-4.801,-4.7857,-4.7832,-4.8011,-4.8011,-4.8011,-4.8011,-4.8011,-4.8011,-4.7226,-4.7337,-4.735,-4.7481,-4.7514,-4.7605,-4.7642,-4.769,-4.773,-4.7838,-4.7902,-4.7924,-4.7968,-4.8045,-4.8113,-4.8121,-4.8149,-4.8179,-4.8183,-4.804,-4.8021,-4.8002,-4.7978,-4.8185,-4.8185,-4.8329,-4.8331,-4.8332]}]]